Regional Weather Roundup
Issued by NWS Raleigh/Durham, NC

Home | Current Version | Previous Version | Text Only | Print | Product List | Glossary On
Versions: 1 2 3 4 5 6 7 8 9 10 11 12 13 14 15 16 17 18 19 20 21 22 23 24 25 26 27
000
ASUS42 KRAH 301810
RWRRAH
NORTH CAROLINA WEATHER ROUNDUP
NATIONAL WEATHER SERVICE RALEIGH NC
200 PM EDT SAT JUL 30 2016

NOTE: "FAIR" INDICATES FEW OR NO CLOUDS BELOW 12,000 FEET WITH NO
SIGNIFICANT WEATHER AND/OR OBSTRUCTIONS TO VISIBILITY.

NCZ001-053-055-056-065-067-301900-
WESTERN NORTH CAROLINA

CITY           SKY/WX    TMP DP  RH WIND       PRES   REMARKS
ASHEVILLE      SUNNY     84  68  58 SW6       30.09F
JEFFERSON      CLOUDY    77  64  63 CALM      30.14F
HICKORY        SUNNY     87  69  54 CALM      30.01F
RUTHERFORDTON    N/A     86  71  59 SE3       30.02F
MOUNT AIRY     LGT RAIN  86  73  65 W5        30.02F
BOONE          CLOUDY    80  62  54 NW9       30.14F
$$

NCZ021-022-025-041-071-084-088-301900-
CENTRAL NORTH CAROLINA

CITY           SKY/WX    TMP DP  RH WIND       PRES   REMARKS
CHARLOTTE      PTSUNNY   90  69  50 SW6       30.01F
GREENSBORO     MOSUNNY   88  69  53 CALM      29.98F
WINSTON-SALEM  SUNNY     89  66  46 VRB5      29.99F
RALEIGH-DURHAM PTSUNNY   93  73  52 SW15      29.96F HX 102
FORT BRAGG     SUNNY     96  69  41 W14       29.95S HX 102
FAYETTEVILLE   SUNNY     99  67  35 W15       29.95F HX 103
BURLINGTON     MOSUNNY   92  72  51 VRB7      29.96F HX  99
LAURINBURG     MOSUNNY   98  69  38 W16G22    29.97F HX 104
$$

NCZ011-015-027-028-043-044-047-080-103-301900-
NORTHEASTERN NORTH CAROLINA

CITY           SKY/WX    TMP DP  RH WIND       PRES   REMARKS
ROCKY MT-WILSO CLOUDY    93  75  55 SW8       29.95F HX 104
GREENVILLE     HVY RAIN  79  73  83 SW17G25   29.98R
WASHINGTON     SUNNY     92  77  60 S7        29.93F HX 106
ELIZABETH CITY CLOUDY    87  75  67 E16       29.97F HX  96
MANTEO         NOT AVBL
CAPE HATTERAS  CLOUDY    84  78  82 S7        30.01R HX  95
$$

NCZ078-087-090-091-093-098-101-301900-
SOUTHEASTERN NORTH CAROLINA

CITY           SKY/WX    TMP DP  RH WIND       PRES   REMARKS
LUMBERTON      SUNNY     96  71  44 SW12G21   29.96F HX 103
GOLDSBORO      MOSUNNY   91  79  67 VRB2      29.92F HX 107
KINSTON        MOSUNNY   99  70  39 SW13G18   29.94F HX 105
KENANSVILLE    NOT AVBL
NEW BERN       MOSUNNY   95  75  52 VRB5      29.95F HX 107
CHERRY POINT   CLOUDY    93  78  61 S15       29.96F HX 108
BEAUFORT       MOSUNNY   87  81  82 S15       29.97F HX 104
JACKSONVILLE   TSTM      80  71  74 VRB7G26   29.96S
WILMINGTON     CLOUDY    94  73  50 S12       29.97F HX 103
$$





USA.gov is the U.S. government's official web portal to all federal, state and local government web resources and services.